Probability
1 2 2 2 2 2 3 5 6 6 6 6 6 6 6 5 4 2 1 0 0 0 0 0 0 0 0 0 0 0 0 0 0 0 0 0 0 1 2 3 2 1 0
0 1 1 1 1 1 1 3 5 6 6 6 6 6 6 5 4 3 1 0 0 0 0 0 0 0 0 0 0 0 0 0 0 0 0 0 0 0 1 2 2 1 0
0 0 0 0 0 0 0 1 3 4 5 6 6 6 6 6 5 4 2 1 0 0 0 0 0 0 0 0 0 0 0 0 0 0 0 0 0 0 0 1 1 0 0
0 0 0 0 0 0 0 0 1 1 3 4 5 5 5 6 6 5 4 1 0 0 0 0 0 0 0 0 0 0 0 0 0 0 0 0 0 0 0 0 0 0 0
0 0 0 0 0 0 0 0 0 0 1 1 3 3 4 4 5 6 5 3 1 0 0 0 0 0 0 0 0 0 0 0 0 0 0 0 0 0 0 0 0 0 0
0 0 0 0 0 0 0 0 0 0 0 0 1 2 3 3 4 5 6 4 2 1 0 0 0 0 0 0 0 0 0 0 0 0 0 0 0 0 0 0 0 0 0
0 0 0 0 0 0 0 0 0 0 0 0 0 1 1 2 3 4 5 4 3 2 1 0 0 0 0 0 0 0 0 0 0 0 0 0 0 0 0 0 0 0 0
0 0 0 0 0 0 0 0 0 0 0 0 0 0 0 1 1 1 3 4 3 3 1 0 0 0 0 0 0 0 0 0 0 0 0 0 0 0 0 0 0 0 0
0 0 0 0 0 0 0 0 0 0 0 0 0 0 0 0 0 1 1 3 3 3 2 1 0 0 0 0 0 0 0 0 0 0 0 0 0 0 0 0 0 0 0
0 0 0 0 0 0 0 0 0 0 0 0 0 0 0 0 0 1 1 2 3 3 3 2 1 0 0 0 0 0 0 0 0 0 0 0 0 0 0 0 0 0 0
0 0 0 0 0 0 0 0 0 0 0 0 0 0 0 0 0 1 1 1 2 3 3 3 2 1 0 0 0 0 0 0 0 0 0 0 0 0 0 0 0 0 0
0 0 0 0 0 0 0 0 0 0 0 0 0 0 0 0 0 0 0 0 1 1 2 3 3 2 1 0 0 0 0 0 0 0 0 0 0 0 0 0 0 0 0
0 0 0 0 0 0 0 0 0 0 0 0 0 0 0 0 0 0 0 0 0 1 2 2 3 3 2 1 0 0 0 0 0 0 0 0 0 0 0 0 0 0 0
0 0 0 0 0 0 0 0 0 0 0 0 0 0 0 0 0 0 0 0 0 1 1 1 3 3 3 2 1 0 0 0 0 0 0 0 0 0 0 0 0 0 0
0 0 0 0 0 0 0 0 0 0 0 0 0 0 0 0 0 0 0 0 0 0 1 2 3 3 3 2 1 0 0 0 0 0 0 0 0 0 0 0 0 0 0
0 0 0 0 0 0 0 0 0 0 0 0 0 0 0 0 0 0 0 0 0 0 0 1 2 2 2 1 0 0 0 0 0 0 0 0 0 0 0 0 0 0 0
0 0 0 0 0 0 0 0 0 0 0 0 0 0 0 0 0 0 0 0 0 0 0 0 1 1 1 0 0 0 0 0 0 0 0 0 0 0 0 0 0 0 0
0 0 0 0 0 0 0 0 0 0 0 0 0 0 0 0 0 0 0 0 0 0 0 0 0 0 0 0 0 0 0 0 0 0 0 0 0 0 0 0 0 0 0
0 0 0 0 0 0 0 0 0 0 0 0 0 0 0 0 0 0 0 0 0 0 0 0 0 0 0 0 0 0 0 0 0 0 0 0 0 0 0 0 0 0 0
0 0 0 0 0 0 0 0 0 0 0 0 0 0 0 0 0 0 0 0 0 0 0 0 0 0 0 0 0 0 0 0 0 0 0 0 0 0 0 0 0 0 0
0 0 0 0 0 0 0 0 0 0 0 0 0 0 0 0 0 0 0 0 0 0 0 0 0 0 0 0 0 0 0 0 0 0 0 0 0 0 0 0 0 0 0
0 0 0 0 0 0 0 0 0 0 0 0 0 0 0 0 0 0 0 0 0 0 0 0 0 0 0 0 0 0 0 0 0 0 0 0 0 0 0 0 0 0 0
0 0 0 0 0 0 0 0 0 0 0 0 0 0 0 0 0 0 0 0 0 0 0 0 0 0 0 0 0 0 0 0 0 0 0 0 0 0 0 0 0 0 0
0 0 0 0 0 0 0 0 0 0 0 0 0 0 0 0 0 0 0 0 0 0 0 0 0 0 0 0 0 0 0 0 0 0 0 0 0 0 0 0 0 0 0
0 0 0 0 0 0 0 0 0 0 0 0 0 0 0 0 0 0 0 0 0 0 0 0 0 0 0 0 0 0 0 0 0 0 0 0 0 0 0 0 0 0 0
0 0 0 0 0 0 0 0 0 0 0 0 0 0 0 0 0 0 0 0 0 0 0 0 0 0 0 0 0 0 0 0 0 0 0 0 0 0 0 0 0 0 0
Wind_Speed
4 4 4 4 3 3 3 3 2 2 2 1 1 1 1 1 1 1 1 1 1 1 1 1 1 1 0 0 1 1 1 1 1 1 1 2 1 1 1 1 0 0 0
4 4 4 4 4 4 3 3 2 2 2 1 1 0 0 0 0 0 1 1 1 0 0 1 0 0 0 0 1 1 1 1 1 0 0 1 2 1 1 1 0 0 0
3 3 4 3 4 4 3 3 3 3 2 2 1 1 1 1 1 1 1 1 0 0 0 0 0 0 0 0 0 0 1 1 1 1 1 1 2 1 1 1 1 1 1
3 4 4 4 4 4 4 3 3 3 3 2 2 1 1 1 1 1 1 1 1 0 0 0 0 0 0 0 1 0 1 1 1 1 1 1 1 1 1 1 1 1 2
4 4 4 4 4 4 4 4 4 4 3 3 2 2 1 1 1 1 2 1 1 1 0 1 1 1 0 0 1 1 1 1 1 1 1 1 2 1 1 2 2 1 2
4 4 4 5 5 5 5 4 4 4 4 4 3 2 2 2 2 2 2 2 1 1 1 1 1 1 1 1 1 1 2 1 1 1 1 1 1 1 1 2 2 2 2
4 4 5 5 6 6 6 5 5 5 5 4 3 3 2 2 2 2 1 2 1 2 2 2 2 2 2 2 2 2 2 2 2 2 2 2 2 2 2 2 2 2 2
4 4 4 4 5 6 6 6 5 5 5 5 4 3 3 2 2 2 2 2 2 2 2 2 2 3 2 2 2 2 2 2 3 3 3 2 3 2 2 2 2 2 2
3 3 4 4 4 5 5 6 6 6 6 6 5 3 3 3 3 3 3 2 2 3 2 3 3 3 3 3 2 2 3 3 3 3 3 3 3 2 2 2 3 3 3
3 3 4 4 4 4 4 5 5 5 6 6 5 4 4 3 3 3 3 3 4 4 3 3 3 3 3 3 3 3 3 3 3 3 4 4 3 3 3 3 3 3 4
3 3 3 3 3 3 4 5 5 6 6 6 6 5 5 4 4 3 3 4 4 4 4 4 4 4 4 4 3 4 4 5 4 4 4 5 4 3 3 3 3 3 3
2 2 3 3 3 4 4 5 5 5 6 6 6 5 5 5 5 5 4 4 5 4 4 4 4 4 4 4 4 5 5 5 6 5 5 5 4 4 4 3 4 4 4
2 2 2 3 4 4 4 5 5 5 5 6 6 5 5 5 6 6 6 5 5 5 5 4 4 4 5 5 5 5 6 6 6 6 6 6 5 5 4 4 4 4 3
2 3 3 3 3 4 4 4 5 5 6 6 6 5 6 6 6 6 6 6 6 5 5 5 4 4 5 5 5 5 5 6 5 5 6 6 6 6 5 5 5 4 3
3 3 3 3 3 4 4 5 5 6 6 6 6 5 5 6 6 6 6 6 6 6 6 5 5 5 4 5 5 5 6 5 5 6 6 6 7 8 7 5 5 5 4
3 3 3 3 4 4 4 5 5 6 6 6 6 6 6 6 6 6 6 6 6 6 6 5 6 5 5 8 10 7 5 5 6 6 6 6 7 8 10 10 9 7 6
3 3 3 3 4 4 4 5 5 6 6 6 6 6 6 6 7 7 7 7 6 6 6 6 5 6 7 10 10 10 6 5 5 5 5 5 6 7 5 7 10 10 11
3 3 3 3 3 4 4 4 5 5 5 6 6 6 6 7 7 6 6 7 6 6 6 6 6 6 7 11 11 10 7 5 5 5 5 5 5 6 6 5 6 6 6
2 2 3 3 3 4 4 4 5 5 5 6 6 6 6 7 7 7 7 6 6 6 6 6 6 6 7 10 11 10 4 4 5 5 5 5 5 9 10 6 6 6 6
2 2 3 3 4 4 3 4 5 5 6 6 7 6 6 6 6 7 7 6 6 6 7 7 6 6 6 10 11 10 4 4 4 4 5 8 8 10 11 7 6 6 5
2 2 3 3 3 4 3 4 5 6 6 6 7 7 6 6 6 6 6 6 6 6 6 7 6 6 7 9 11 10 4 4 4 4 3 4 9 10 10 9 6 8 6
3 2 3 3 3 3 3 4 5 6 6 6 7 7 6 6 6 5 6 5 5 6 6 6 6 5 6 8 9 10 8 6 4 4 3 4 8 9 9 7 7 9 7
2 2 3 4 4 3 3 4 6 5 5 6 6 6 7 6 6 5 5 5 4 4 5 5 5 5 5 6 11 10 10 9 5 3 6 6 8 8 6 7 8 6 3
3 2 3 3 4 4 4 4 5 5 5 6 6 6 6 6 5 5 4 4 4 4 5 5 5 5 5 5 5 4 5 7 5 4 5 7 7 5 5 5 4 3 3
3 2 3 4 5 4 5 5 5 4 5 6 6 6 6 6 5 5 4 5 4 4 5 4 5 5 5 7 10 7 4 3 3 3 2 2 2 2 2 2 2 2 2
3 3 3 4 5 5 5 5 4 4 4 5 5 5 5 5 5 5 5 8 8 10 11 10 8 7 9 11 11 11 10 9 7 3 1 2 2 2 2 1 1 1 2
Wind_Direction
63 71 57 46 47 47 43 40 52 49 47 32 28 27 22 357 20 39 50 41 48 80 91 55 19 8 20 350 14 4 4 340 342 347 328 314 280 234 263 261 225 190 152
53 50 59 47 37 34 28 27 25 29 26 6 349 317 279 287 296 26 40 29 10 32 58 112 135 347 11 20 50 33 352 304 317 15 320 320 318 326 304 321 282 267 92
59 48 42 47 33 25 21 19 17 11 0 9 18 22 14 6 17 8 350 324 318 21 43 233 190 269 196 181 113 122 6 288 293 306 175 191 238 308 302 313 329 338 345
51 42 34 28 24 15 14 14 12 18 5 13 25 25 5 323 315 302 301 302 300 261 194 217 246 262 227 194 257 281 257 208 252 288 295 248 199 184 291 300 314 335 332
53 42 31 22 18 17 18 13 11 11 7 5 7 358 347 325 329 335 330 335 307 292 263 235 211 246 253 247 277 286 269 235 227 235 279 282 282 229 214 261 290 310 312
51 38 26 23 21 19 17 13 8 6 7 2 358 358 346 340 339 334 324 328 321 301 289 268 244 236 247 238 246 255 263 264 252 244 239 236 239 233 225 240 263 270 279
47 36 24 19 16 13 10 8 6 360 1 359 351 346 338 324 302 295 292 308 305 301 279 277 256 246 244 246 243 244 252 254 246 237 242 249 247 244 234 226 246 270 279
41 33 25 18 14 7 5 2 1 355 352 349 341 342 343 331 312 310 299 285 279 271 281 267 257 256 251 251 239 245 246 245 247 249 247 249 252 244 231 215 207 255 268
37 28 22 19 14 4 358 356 357 354 350 346 339 341 342 331 317 315 306 289 288 283 277 269 259 259 251 245 240 242 248 248 243 245 248 249 250 247 244 228 208 205 232
29 20 15 12 10 360 352 355 356 352 348 345 339 340 337 328 318 311 306 300 290 279 273 270 262 259 257 248 237 242 243 245 248 244 244 250 247 244 242 236 230 219 219
19 9 1 359 359 358 358 355 354 351 347 345 342 341 336 331 324 312 307 303 293 276 267 263 261 255 254 252 245 241 241 241 246 247 243 247 244 238 238 231 229 229 220
13 3 357 356 356 356 355 353 351 347 343 341 338 335 331 329 327 324 317 312 302 288 270 263 261 257 253 249 247 245 242 241 241 242 240 242 241 237 236 225 227 227 223
357 358 357 354 350 350 348 344 342 340 338 337 334 332 332 332 330 326 321 318 310 305 293 278 267 264 257 251 249 246 245 243 242 237 235 236 234 234 236 229 228 229 232
345 349 350 340 339 342 341 338 338 337 336 335 330 329 329 328 325 322 321 317 313 306 299 288 277 272 267 259 254 251 251 249 245 243 241 237 232 232 231 233 226 225 226
338 338 332 327 334 342 342 341 337 336 334 328 324 323 323 325 324 322 321 319 315 310 303 296 285 275 267 260 255 251 249 249 249 248 248 244 240 239 234 235 226 217 220
311 316 325 333 335 338 336 336 331 330 330 325 322 324 326 326 324 321 319 319 317 313 308 298 293 282 275 274 271 269 253 246 244 249 250 249 246 246 246 247 243 234 225
305 316 324 326 329 332 336 331 326 327 327 325 324 327 328 326 323 322 323 320 315 310 306 303 298 291 286 286 283 276 270 251 247 245 247 254 250 244 240 248 250 248 246
323 325 326 327 328 332 335 327 324 324 326 325 324 328 328 323 320 321 320 316 312 310 306 303 298 294 292 292 287 284 273 257 249 242 239 245 249 241 238 237 241 243 247
320 320 323 320 323 327 326 326 326 328 328 326 324 324 322 319 319 319 316 313 313 309 306 302 298 295 298 297 291 287 274 260 257 253 245 241 241 247 245 238 236 243 249
347 335 330 327 324 322 329 329 324 326 324 320 317 315 313 312 311 310 309 310 308 304 307 305 299 293 292 296 294 288 274 264 263 259 253 249 249 250 247 236 230 239 244
331 327 322 318 315 320 327 319 319 317 316 317 316 315 313 310 305 305 307 310 310 312 312 309 306 300 300 300 296 288 273 261 262 262 257 254 256 255 253 246 236 241 244
321 322 317 312 313 317 319 315 311 310 316 317 316 315 314 311 311 310 309 310 312 314 313 312 312 309 307 310 305 298 284 275 259 260 258 256 260 258 257 256 255 253 250
302 306 303 305 309 314 318 307 305 312 315 317 316 314 314 313 312 309 311 312 313 315 315 316 315 317 316 313 313 307 301 293 279 268 268 266 266 263 261 262 261 255 242
292 296 301 305 307 311 311 299 304 310 311 312 312 312 314 316 316 313 311 311 312 311 313 315 315 315 316 317 318 311 305 298 292 285 282 281 279 273 271 263 253 243 230
301 301 293 293 297 306 304 305 309 310 309 308 308 311 313 312 313 312 306 304 292 299 303 304 303 307 310 312 315 316 309 304 287 285 280 284 282 266 259 246 235 230 230
295 297 295 295 298 302 300 302 304 305 304 308 311 311 311 310 312 311 311 312 309 311 307 306 307 302 309 318 318 315 314 318 313 303 298 290 286 277 271 259 252 243 238